Year,Month,Day,Hour,Minute,Value (Times are PST for temperature in C)
2008,09,03,00,00,11.60
2008,09,03,00,01,11.60
2008,09,03,00,02,11.60
2008,09,03,00,03,11.60
2008,09,03,00,04,11.60
2008,09,03,00,05,11.60
2008,09,03,00,06,11.60
2008,09,03,00,07,11.60
2008,09,03,00,08,11.70
2008,09,03,00,09,11.70
2008,09,03,00,10,11.70
2008,09,03,00,11,11.70
2008,09,03,00,12,11.70
2008,09,03,00,13,11.70
2008,09,03,00,14,11.80
2008,09,03,00,15,11.80
2008,09,03,00,16,11.80
2008,09,03,00,17,11.80
2008,09,03,00,18,11.80
2008,09,03,00,19,11.80
2008,09,03,00,20,11.80
2008,09,03,00,21,11.80
2008,09,03,00,22,11.80
2008,09,03,00,23,11.80
2008,09,03,00,24,11.80
2008,09,03,00,25,11.80
2008,09,03,00,26,11.70
2008,09,03,00,27,11.70
2008,09,03,00,28,11.70
2008,09,03,00,29,11.70
2008,09,03,00,30,11.60
2008,09,03,00,31,11.60
2008,09,03,00,32,11.60
2008,09,03,00,33,11.60
2008,09,03,00,34,11.60
2008,09,03,00,35,11.60
2008,09,03,00,36,11.60
2008,09,03,00,37,11.60
2008,09,03,00,38,11.60
2008,09,03,00,39,11.70
2008,09,03,00,40,11.70
2008,09,03,00,41,11.70
2008,09,03,00,42,11.70
2008,09,03,00,43,11.80
2008,09,03,00,44,11.80
2008,09,03,00,45,11.90
2008,09,03,00,46,12.00
2008,09,03,00,47,12.00
2008,09,03,00,48,12.10
2008,09,03,00,49,12.10
2008,09,03,00,50,12.20
2008,09,03,00,51,12.30
2008,09,03,00,52,12.30
2008,09,03,00,53,12.40
2008,09,03,00,54,12.50
2008,09,03,00,55,12.50
2008,09,03,00,56,12.60
2008,09,03,00,57,12.70
2008,09,03,00,58,12.70
2008,09,03,00,59,12.80
2008,09,03,01,00,12.80
2008,09,03,01,01,12.90
2008,09,03,01,02,12.90
2008,09,03,01,03,12.90
2008,09,03,01,04,13.00
2008,09,03,01,05,13.00
2008,09,03,01,06,13.00
2008,09,03,01,07,13.10
2008,09,03,01,08,13.10
2008,09,03,01,09,13.10
2008,09,03,01,10,13.10
2008,09,03,01,11,13.10
2008,09,03,01,12,13.10
2008,09,03,01,13,13.10
2008,09,03,01,14,13.20
2008,09,03,01,15,13.20
2008,09,03,01,16,13.20
2008,09,03,01,17,13.20
2008,09,03,01,18,13.20
2008,09,03,09,02,13.30
2008,09,03,09,03,13.30
2008,09,03,09,04,13.30
2008,09,03,09,05,13.30
2008,09,03,09,06,13.30
2008,09,03,09,07,13.30
2008,09,03,09,08,13.30
2008,09,03,09,09,13.30
2008,09,03,09,10,13.30
2008,09,03,09,11,13.30
2008,09,03,09,12,13.30
2008,09,03,09,13,13.30
2008,09,03,09,14,13.30
2008,09,03,09,15,13.30
2008,09,03,09,16,13.30
2008,09,03,09,17,13.40
2008,09,03,09,18,13.40
2008,09,03,09,19,13.40
2008,09,03,09,20,13.40
2008,09,03,09,21,13.40
2008,09,03,09,22,13.50
2008,09,03,09,23,13.50
2008,09,03,09,24,13.50
2008,09,03,09,25,13.50
2008,09,03,09,26,13.60
2008,09,03,09,27,13.60
2008,09,03,09,28,13.60
2008,09,03,09,29,13.60
2008,09,03,09,30,13.70
2008,09,03,09,31,13.60
2008,09,03,09,32,13.60
2008,09,03,09,33,13.60
2008,09,03,09,34,13.70
2008,09,03,09,35,13.70
2008,09,03,09,36,13.70
2008,09,03,09,37,13.70
2008,09,03,09,38,13.80
2008,09,03,09,39,13.80
2008,09,03,09,40,13.80
2008,09,03,09,41,13.90
2008,09,03,09,42,13.90
2008,09,03,09,43,13.90
2008,09,03,09,44,13.90
2008,09,03,09,45,14.00
2008,09,03,09,46,14.00
2008,09,03,09,47,14.00
2008,09,03,09,48,14.00
2008,09,03,09,49,14.00
2008,09,03,09,50,14.00
2008,09,03,09,51,14.10
2008,09,03,09,52,14.10
2008,09,03,09,53,14.20
2008,09,03,09,54,14.20
2008,09,03,09,55,14.20
2008,09,03,09,56,14.30
2008,09,03,09,57,14.30
2008,09,03,09,58,14.30
2008,09,03,09,59,14.30
2008,09,03,10,00,14.30
2008,09,03,10,01,14.30
2008,09,03,10,02,14.30
2008,09,03,10,03,14.30
2008,09,03,10,04,14.30
2008,09,03,10,05,14.30
2008,09,03,10,06,14.30
2008,09,03,10,07,14.30
2008,09,03,10,08,14.30
2008,09,03,10,09,14.30
2008,09,03,10,10,14.30
2008,09,03,10,11,14.40
2008,09,03,10,12,14.40
2008,09,03,10,13,14.40
2008,09,03,10,14,14.40
2008,09,03,10,15,14.40
2008,09,03,10,16,14.40
2008,09,03,10,17,14.40
2008,09,03,10,18,14.30
2008,09,03,10,19,14.20
2008,09,03,10,20,14.30
2008,09,03,10,21,14.30
2008,09,03,10,22,14.40
2008,09,03,10,23,14.40
2008,09,03,10,24,14.40
2008,09,03,10,25,14.40
2008,09,03,10,26,14.30
2008,09,03,10,27,14.30
2008,09,03,10,28,14.30
2008,09,03,10,29,14.40
2008,09,03,10,30,14.40
2008,09,03,10,31,14.40
2008,09,03,10,32,14.40
2008,09,03,10,33,14.40
2008,09,03,10,34,14.40
2008,09,03,10,35,14.40
2008,09,03,10,36,14.50
2008,09,03,10,37,14.50
2008,09,03,10,38,14.60
2008,09,03,10,39,14.60
2008,09,03,10,40,14.60
2008,09,03,10,41,14.60
2008,09,03,10,42,14.70
2008,09,03,10,43,14.70
2008,09,03,10,44,14.80
2008,09,03,10,45,14.80
2008,09,03,10,46,14.80
2008,09,03,10,47,14.80
2008,09,03,10,48,14.80
2008,09,03,10,49,14.80
2008,09,03,10,50,14.80
2008,09,03,10,51,14.80
2008,09,03,10,52,14.80
2008,09,03,10,53,14.80
2008,09,03,10,54,14.80
2008,09,03,10,55,14.90
2008,09,03,10,56,14.90
2008,09,03,10,57,14.90
2008,09,03,10,58,14.90
2008,09,03,10,59,14.90
2008,09,03,11,00,14.80
2008,09,03,11,01,14.80
2008,09,03,11,02,14.80
2008,09,03,11,03,14.80
2008,09,03,11,04,14.80
2008,09,03,11,05,14.80
2008,09,03,11,06,14.80
2008,09,03,11,07,14.80
2008,09,03,11,08,14.90
2008,09,03,11,09,15.00
2008,09,03,11,10,15.00
2008,09,03,11,11,15.10
2008,09,03,11,12,15.10
2008,09,03,11,13,15.00
2008,09,03,11,14,15.00
2008,09,03,11,15,15.00
2008,09,03,11,16,14.90
2008,09,03,11,17,14.90
2008,09,03,11,18,14.90
2008,09,03,11,19,14.90
2008,09,03,11,20,14.90
2008,09,03,11,21,14.90
2008,09,03,11,22,14.90
2008,09,03,11,23,15.00
2008,09,03,11,24,15.10
2008,09,03,11,25,15.10
2008,09,03,11,26,15.20
2008,09,03,11,27,15.30
2008,09,03,11,28,15.30
2008,09,03,11,29,15.30
2008,09,03,11,30,15.30
2008,09,03,11,31,15.30
2008,09,03,11,32,15.30
2008,09,03,11,33,15.30
2008,09,03,11,34,15.30
2008,09,03,11,35,15.30
2008,09,03,11,36,15.20
2008,09,03,11,37,15.30
2008,09,03,11,38,15.30
2008,09,03,11,39,15.30
2008,09,03,11,40,15.30
2008,09,03,11,41,15.30
2008,09,03,11,42,15.30
2008,09,03,11,43,15.30
2008,09,03,11,44,15.30
2008,09,03,11,45,15.30
2008,09,03,11,46,15.30
2008,09,03,11,47,15.30
2008,09,03,11,48,15.30
2008,09,03,11,49,15.30
2008,09,03,11,50,15.20
2008,09,03,11,51,15.30
2008,09,03,11,52,15.30
2008,09,03,11,53,15.30
2008,09,03,11,54,15.30
2008,09,03,11,55,15.30
2008,09,03,11,56,15.30
2008,09,03,11,57,15.30
2008,09,03,11,58,15.30
2008,09,03,11,59,15.30
2008,09,03,12,00,15.30
2008,09,03,12,01,15.40
2008,09,03,12,02,15.40
2008,09,03,12,03,15.40
2008,09,03,12,04,15.50
2008,09,03,12,05,15.50
2008,09,03,12,06,15.60
2008,09,03,12,07,15.50
2008,09,03,12,08,15.50
2008,09,03,12,09,15.50
2008,09,03,12,10,15.50
2008,09,03,12,11,15.50
2008,09,03,12,12,15.50
2008,09,03,12,13,15.40
2008,09,03,12,14,15.40
2008,09,03,12,15,15.40
2008,09,03,12,16,15.50
2008,09,03,12,17,15.50
2008,09,03,12,18,15.50
2008,09,03,12,19,15.50
2008,09,03,12,20,15.50
2008,09,03,12,21,15.50
2008,09,03,12,22,15.30
2008,09,03,12,23,15.20
2008,09,03,12,24,15.20
2008,09,03,12,25,15.30
2008,09,03,12,26,15.30
2008,09,03,12,27,15.40
2008,09,03,12,28,15.40
2008,09,03,12,29,15.40
2008,09,03,12,30,15.40
2008,09,03,12,31,15.40
2008,09,03,12,32,15.50
2008,09,03,12,33,15.60
2008,09,03,12,34,15.60
2008,09,03,12,35,15.70
2008,09,03,12,36,15.80
2008,09,03,12,37,15.80
2008,09,03,12,38,15.90
2008,09,03,12,39,15.90
2008,09,03,12,40,16.10
2008,09,03,12,41,16.10
2008,09,03,12,42,16.10
2008,09,03,12,43,16.10
2008,09,03,12,44,16.10
2008,09,03,12,45,16.10
2008,09,03,12,46,16.10
2008,09,03,12,47,16.10
2008,09,03,12,48,16.00
2008,09,03,12,49,15.90
2008,09,03,12,50,15.90
2008,09,03,12,51,15.80
2008,09,03,12,52,15.80
2008,09,03,12,53,15.80
2008,09,03,12,54,15.80
2008,09,03,12,55,15.90
2008,09,03,12,56,15.90
2008,09,03,12,57,15.90
2008,09,03,12,58,16.10
2008,09,03,12,59,16.10
2008,09,03,13,00,16.10
2008,09,03,13,01,16.20
2008,09,03,13,02,16.20
2008,09,03,13,03,16.20
2008,09,03,13,04,16.20
2008,09,03,13,05,16.10
2008,09,03,13,06,16.10
2008,09,03,13,07,16.10
2008,09,03,13,08,16.10
2008,09,03,13,09,16.20
2008,09,03,13,10,16.20
2008,09,03,13,11,16.20
2008,09,03,13,12,16.10
2008,09,03,13,13,16.10
2008,09,03,13,14,16.10
2008,09,03,13,15,16.10
2008,09,03,13,16,16.10
2008,09,03,13,17,16.10
2008,09,03,13,18,15.90
2008,09,03,13,19,15.80
2008,09,03,13,20,15.70
2008,09,03,13,21,15.60
2008,09,03,13,22,15.60
2008,09,03,13,23,15.60
2008,09,03,13,24,15.60
2008,09,03,13,25,15.70
2008,09,03,13,26,15.80
2008,09,03,13,27,15.80
2008,09,03,13,28,15.90
2008,09,03,13,29,16.00
2008,09,03,13,30,16.10
2008,09,03,13,31,16.10
2008,09,03,13,32,16.10
2008,09,03,13,33,16.00
2008,09,03,13,34,15.90
2008,09,03,13,35,15.90
2008,09,03,13,36,16.00
2008,09,03,13,37,16.10
2008,09,03,13,38,16.10
2008,09,03,13,39,16.20
2008,09,03,13,40,16.30
2008,09,03,13,41,16.30
2008,09,03,13,42,16.20
2008,09,03,13,43,16.20
2008,09,03,13,44,16.30
2008,09,03,13,45,16.30
2008,09,03,13,46,16.30
2008,09,03,13,47,16.30
2008,09,03,13,48,16.30
2008,09,03,13,49,16.40
2008,09,03,13,50,16.40
2008,09,03,13,51,16.40
2008,09,03,13,52,16.40
2008,09,03,13,53,16.40
2008,09,03,13,54,16.50
2008,09,03,13,55,16.60
2008,09,03,13,56,16.70
2008,09,03,13,57,16.80
2008,09,03,13,58,16.90
2008,09,03,13,59,17.00
2008,09,03,14,00,17.10
2008,09,03,14,01,17.10
2008,09,03,14,02,17.20
2008,09,03,14,03,17.20
2008,09,03,14,04,17.20
2008,09,03,14,05,17.20
2008,09,03,14,06,17.20
2008,09,03,14,07,17.10
2008,09,03,14,08,17.10
2008,09,03,14,09,17.00
2008,09,03,14,10,17.00
2008,09,03,14,11,17.10
2008,09,03,14,12,17.10
2008,09,03,14,13,17.10
2008,09,03,14,14,17.20
2008,09,03,14,15,17.30
2008,09,03,14,16,17.30
2008,09,03,14,17,17.30
2008,09,03,14,18,17.30
2008,09,03,14,19,17.40
2008,09,03,14,20,17.50
2008,09,03,14,21,17.50
2008,09,03,14,22,17.50
2008,09,03,14,23,17.50
2008,09,03,14,24,17.40
2008,09,03,14,25,17.40
2008,09,03,14,26,17.30
2008,09,03,14,27,17.30
2008,09,03,14,28,17.30
2008,09,03,14,29,17.40
2008,09,03,14,30,17.40
2008,09,03,14,31,17.30
2008,09,03,14,32,17.20
2008,09,03,14,33,17.20
2008,09,03,14,34,17.20
2008,09,03,14,35,17.30
2008,09,03,14,36,17.40
2008,09,03,14,37,17.50
2008,09,03,14,38,17.50
2008,09,03,14,39,17.60
2008,09,03,14,40,17.70
2008,09,03,14,41,17.70
2008,09,03,14,42,17.70
2008,09,03,14,43,17.70
2008,09,03,14,44,17.80
2008,09,03,14,45,17.90
2008,09,03,14,46,17.90
2008,09,03,14,47,17.90
2008,09,03,14,48,17.90
2008,09,03,14,49,17.90
2008,09,03,14,50,17.90
2008,09,03,14,51,17.90
2008,09,03,14,52,17.90
2008,09,03,14,53,17.90
2008,09,03,14,54,17.90
2008,09,03,14,55,17.90
2008,09,03,14,56,17.90
2008,09,03,14,57,17.90
2008,09,03,14,58,17.80
2008,09,03,14,59,17.80
2008,09,03,15,00,17.80
2008,09,03,15,01,17.90
2008,09,03,15,02,17.90
2008,09,03,15,03,17.90
2008,09,03,15,04,17.80
2008,09,03,15,05,17.80
2008,09,03,15,06,17.70
2008,09,03,15,07,17.70
2008,09,03,15,08,17.70
2008,09,03,15,09,17.80
2008,09,03,15,10,17.80
2008,09,03,15,11,17.80
2008,09,03,15,12,17.70
2008,09,03,15,13,17.50
2008,09,03,15,14,17.30
2008,09,03,15,15,17.20
2008,09,03,15,16,17.10
2008,09,03,15,17,17.10
2008,09,03,15,18,17.10
2008,09,03,15,19,17.10
2008,09,03,15,20,17.20
2008,09,03,15,21,17.20
2008,09,03,15,22,17.20
2008,09,03,15,23,17.30
2008,09,03,15,24,17.30
2008,09,03,15,25,17.40
2008,09,03,15,26,17.50
2008,09,03,15,27,17.50
2008,09,03,15,28,17.70
2008,09,03,15,29,17.80
2008,09,03,15,30,17.90
2008,09,03,15,31,17.90
2008,09,03,15,32,18.00
2008,09,03,15,33,18.10
2008,09,03,15,34,18.10
2008,09,03,15,35,18.10
2008,09,03,15,36,18.10
2008,09,03,15,37,18.10
2008,09,03,15,38,18.00
2008,09,03,15,39,17.90
2008,09,03,15,40,17.80
2008,09,03,15,41,17.70
2008,09,03,15,42,17.70
2008,09,03,15,43,17.70
2008,09,03,15,44,17.80
2008,09,03,15,45,17.80
2008,09,03,15,46,17.90
2008,09,03,15,47,18.00
2008,09,03,15,48,18.10
2008,09,03,15,49,18.10
2008,09,03,15,50,18.10
2008,09,03,15,51,18.10
2008,09,03,15,52,18.10
2008,09,03,15,53,18.10
2008,09,03,15,54,18.20
2008,09,03,15,55,18.20
2008,09,03,15,56,18.20
2008,09,03,15,57,18.20
2008,09,03,15,58,18.30
2008,09,03,15,59,18.20
2008,09,03,16,00,18.20
2008,09,03,16,01,18.20
2008,09,03,16,02,18.10
2008,09,03,16,03,18.00
2008,09,03,16,04,17.90
2008,09,03,16,05,17.80
2008,09,03,16,06,17.80
2008,09,03,16,07,17.80
2008,09,03,16,08,17.80
2008,09,03,16,09,17.90
2008,09,03,16,10,17.90
2008,09,03,16,11,18.00
2008,09,03,16,12,18.10
2008,09,03,16,13,18.20
2008,09,03,16,14,18.20
2008,09,03,16,15,18.40
2008,09,03,16,16,18.40
2008,09,03,16,17,18.50
2008,09,03,16,18,18.50
2008,09,03,16,19,18.50
2008,09,03,16,20,18.50
2008,09,03,16,21,18.40
2008,09,03,16,22,18.20
2008,09,03,16,23,18.10
2008,09,03,16,24,18.00
2008,09,03,16,25,17.90
2008,09,03,16,26,17.90
2008,09,03,16,27,17.90
2008,09,03,16,28,17.90
2008,09,03,16,29,17.90
2008,09,03,16,30,17.90
2008,09,03,16,31,18.00
2008,09,03,16,32,18.10
2008,09,03,16,33,18.10
2008,09,03,16,34,18.10
2008,09,03,16,35,18.10
2008,09,03,16,36,18.20
2008,09,03,16,37,18.20
2008,09,03,16,38,18.20
2008,09,03,16,39,18.20
2008,09,03,16,40,18.20
2008,09,03,16,41,18.20
2008,09,03,16,42,18.20
2008,09,03,16,43,18.10
2008,09,03,16,44,18.10
2008,09,03,16,45,18.00
2008,09,03,16,46,17.90
2008,09,03,16,47,17.90
2008,09,03,16,48,17.90
2008,09,03,16,49,17.90
2008,09,03,16,50,17.90
2008,09,03,16,51,17.90
2008,09,03,16,52,18.00
2008,09,03,16,53,18.10
2008,09,03,16,54,18.10
2008,09,03,16,55,18.20
2008,09,03,16,56,18.30
2008,09,03,16,57,18.30
2008,09,03,16,58,18.40
2008,09,03,16,59,18.40
2008,09,03,17,00,18.50
2008,09,03,17,01,18.50
2008,09,03,17,02,18.50
2008,09,03,17,03,18.50
2008,09,03,17,04,18.40
2008,09,03,17,05,18.40
2008,09,03,17,06,18.30
2008,09,03,17,07,18.30
2008,09,03,17,08,18.30
2008,09,03,17,09,18.20
2008,09,03,17,10,18.10
2008,09,03,17,11,17.90
2008,09,03,17,12,17.90
2008,09,03,17,13,17.80
2008,09,03,17,14,17.80
2008,09,03,17,15,17.80
2008,09,03,17,16,17.80
2008,09,03,17,17,17.80
2008,09,03,17,18,17.80
2008,09,03,17,19,17.80
2008,09,03,17,20,17.80
2008,09,03,17,21,17.80
2008,09,03,17,22,17.70
2008,09,03,17,23,17.70
2008,09,03,17,24,17.70
2008,09,03,17,25,17.70
2008,09,03,17,26,17.70
2008,09,03,17,27,17.70
2008,09,03,17,28,17.60
2008,09,03,17,29,17.50
2008,09,03,17,30,17.50
2008,09,03,17,31,17.50
2008,09,03,17,32,17.40
2008,09,03,17,33,17.40
2008,09,03,17,34,17.30
2008,09,03,17,35,17.30
2008,09,03,17,36,17.30
2008,09,03,17,37,17.30
2008,09,03,17,38,17.30
2008,09,03,17,39,17.30
2008,09,03,17,40,17.30
2008,09,03,17,41,17.30
2008,09,03,17,42,17.20
2008,09,03,17,43,17.10
2008,09,03,17,44,17.00
2008,09,03,17,45,17.00
2008,09,03,17,46,16.90
2008,09,03,17,47,16.80
2008,09,03,17,48,16.70
2008,09,03,17,49,16.70
2008,09,03,17,50,16.70
2008,09,03,17,51,16.70
2008,09,03,17,52,16.70
2008,09,03,17,53,16.70
2008,09,03,17,54,16.60
2008,09,03,17,55,16.60
2008,09,03,17,56,16.60
2008,09,03,17,57,16.50
2008,09,03,17,58,16.40
2008,09,03,17,59,16.40
2008,09,03,18,00,16.40
2008,09,03,18,01,16.40
2008,09,03,18,02,16.40
2008,09,03,18,03,16.40
2008,09,03,18,04,16.40
2008,09,03,18,05,16.40
2008,09,03,18,06,16.40
2008,09,03,18,07,16.40
2008,09,03,18,08,16.40
2008,09,03,18,09,16.40
2008,09,03,18,10,16.40
2008,09,03,18,11,16.40
2008,09,03,18,12,16.40
2008,09,03,18,13,16.30
2008,09,03,18,14,16.30
2008,09,03,18,15,16.30
2008,09,03,18,16,16.30
2008,09,03,18,17,16.30
2008,09,03,18,18,16.30
2008,09,03,18,19,16.30
2008,09,03,18,20,16.30
2008,09,03,18,21,16.30
2008,09,03,18,22,16.30
2008,09,03,18,23,16.30
2008,09,03,18,24,16.30
2008,09,03,18,25,16.30
2008,09,03,18,26,16.30
2008,09,03,18,27,16.30
2008,09,03,18,28,16.30
2008,09,03,18,29,16.30
2008,09,03,18,30,16.30
2008,09,03,18,31,16.30
2008,09,03,18,32,16.30
2008,09,03,18,33,16.30
2008,09,03,18,34,16.30
2008,09,03,18,35,16.30
2008,09,03,18,36,16.30
2008,09,03,18,37,16.30
2008,09,03,18,38,16.30
2008,09,03,18,39,16.30
2008,09,03,18,40,16.30
2008,09,03,18,41,16.20
2008,09,03,18,42,16.30
2008,09,03,18,43,16.30
2008,09,03,18,44,16.30
2008,09,03,18,45,16.30
2008,09,03,18,46,16.30
2008,09,03,18,47,16.30
2008,09,03,18,48,16.30
2008,09,03,18,49,16.30
2008,09,03,18,50,16.30
2008,09,03,18,51,16.30
2008,09,03,18,52,16.30
2008,09,03,18,53,16.30
2008,09,03,18,54,16.30
2008,09,03,18,55,16.30
2008,09,03,18,56,16.30
2008,09,03,18,57,16.30
2008,09,03,18,58,16.30
2008,09,03,18,59,16.30
2008,09,03,19,00,16.30
2008,09,03,19,01,16.30
2008,09,03,19,02,16.30
2008,09,03,19,03,16.30
2008,09,03,19,04,16.30
2008,09,03,19,05,16.30
2008,09,03,19,06,16.30
2008,09,03,19,07,16.30
2008,09,03,19,08,16.30
2008,09,03,19,09,16.30
2008,09,03,19,10,16.30
2008,09,03,19,11,16.30
2008,09,03,19,12,16.30
2008,09,03,19,13,16.30
2008,09,03,19,14,16.30
2008,09,03,19,15,16.20
2008,09,03,19,16,16.20
2008,09,03,19,17,16.20
2008,09,03,19,18,16.20
2008,09,03,19,19,16.10
2008,09,03,19,20,16.10
2008,09,03,19,21,16.10
2008,09,03,19,22,16.10
2008,09,03,19,23,16.10
2008,09,03,19,24,16.10
2008,09,03,19,25,16.10
2008,09,03,19,26,16.10
2008,09,03,19,27,16.10
2008,09,03,19,28,16.00
2008,09,03,19,29,15.90
2008,09,03,19,30,15.90
2008,09,03,19,31,15.90
2008,09,03,19,32,15.90
2008,09,03,19,33,15.90
2008,09,03,19,34,15.90
2008,09,03,19,35,15.90
2008,09,03,19,36,15.80
2008,09,03,19,37,15.80
2008,09,03,19,38,15.80
2008,09,03,19,39,15.80
2008,09,03,19,40,15.80
2008,09,03,19,41,15.80
2008,09,03,19,42,15.80
2008,09,03,19,43,15.80
2008,09,03,19,44,15.80
2008,09,03,19,45,15.80
2008,09,03,19,46,15.80
2008,09,03,19,47,15.80
2008,09,03,19,48,15.80
2008,09,03,19,49,15.80
2008,09,03,19,50,15.80
2008,09,03,19,51,15.80
2008,09,03,19,52,15.70
2008,09,03,19,53,15.70
2008,09,03,19,54,15.70
2008,09,03,19,55,15.70
2008,09,03,19,56,15.60
2008,09,03,19,57,15.60
2008,09,03,19,58,15.60
2008,09,03,19,59,15.60
2008,09,03,20,00,15.50
2008,09,03,20,01,15.50
2008,09,03,20,02,15.50
2008,09,03,20,03,15.50
2008,09,03,20,04,15.50
2008,09,03,20,05,15.50
2008,09,03,20,06,15.50
2008,09,03,20,07,15.60
2008,09,03,20,08,15.60
2008,09,03,20,09,15.60
2008,09,03,20,10,15.60
2008,09,03,20,11,15.60
2008,09,03,20,12,15.60
2008,09,03,20,13,15.60
2008,09,03,20,14,15.60
2008,09,03,20,15,15.50
2008,09,03,20,16,15.50
2008,09,03,20,17,15.50
2008,09,03,20,18,15.50
2008,09,03,20,19,15.50
2008,09,03,20,20,15.50
2008,09,03,20,21,15.40
2008,09,03,20,22,15.40
2008,09,03,20,23,15.40
2008,09,03,20,24,15.40
2008,09,03,20,25,15.30
2008,09,03,20,26,15.30
2008,09,03,20,27,15.30
2008,09,03,20,28,15.30
2008,09,03,20,29,15.30
2008,09,03,20,30,15.30
2008,09,03,20,31,15.30
2008,09,03,20,32,15.30
2008,09,03,20,33,15.30
2008,09,03,20,34,15.30
2008,09,03,20,35,15.30
2008,09,03,20,36,15.30
2008,09,03,20,37,15.30
2008,09,03,20,38,15.30
2008,09,03,20,39,15.30
2008,09,03,20,40,15.30
2008,09,03,20,41,15.30
2008,09,03,20,42,15.30
2008,09,03,20,43,15.30
2008,09,03,20,44,15.30
2008,09,03,20,45,15.30
2008,09,03,20,46,15.30
2008,09,03,20,47,15.40
2008,09,03,20,48,15.40
2008,09,03,20,49,15.40
2008,09,03,20,50,15.40
2008,09,03,20,51,15.40
2008,09,03,20,52,15.40
2008,09,03,20,53,15.40
2008,09,03,20,54,15.40
2008,09,03,20,55,15.40
2008,09,03,20,56,15.40
2008,09,03,20,57,15.40
2008,09,03,20,58,15.40
2008,09,03,20,59,15.40
2008,09,03,21,00,15.40
2008,09,03,21,01,15.40
2008,09,03,21,02,15.30
2008,09,03,21,03,15.30
2008,09,03,21,04,15.30
2008,09,03,21,05,15.30
2008,09,03,21,06,15.30
2008,09,03,21,07,15.30
2008,09,03,21,08,15.30
2008,09,03,21,09,15.30
2008,09,03,21,10,15.30
2008,09,03,21,11,15.30
2008,09,03,21,12,15.30
2008,09,03,21,13,15.30
2008,09,03,21,14,15.30
2008,09,03,21,15,15.20
2008,09,03,21,16,15.20
2008,09,03,21,17,15.20
2008,09,03,21,18,15.20
2008,09,03,21,19,15.10
2008,09,03,21,20,15.10
2008,09,03,21,21,15.00
2008,09,03,21,22,15.00
2008,09,03,21,23,15.00
2008,09,03,21,24,14.90
2008,09,03,21,25,14.90
2008,09,03,21,26,14.80
2008,09,03,21,27,14.80
2008,09,03,21,28,14.80
2008,09,03,21,29,14.80
2008,09,03,21,30,14.70
2008,09,03,21,31,14.70
2008,09,03,21,32,14.60
2008,09,03,21,33,14.60
2008,09,03,21,34,14.60
2008,09,03,21,35,14.50
2008,09,03,21,36,14.50
2008,09,03,21,37,14.50
2008,09,03,21,38,14.40
2008,09,03,21,39,14.40
2008,09,03,21,40,14.40
2008,09,03,21,41,14.30
2008,09,03,21,42,14.30
2008,09,03,21,43,14.30
2008,09,03,21,44,14.20
2008,09,03,21,45,14.20
2008,09,03,21,46,14.20
2008,09,03,21,47,14.20
2008,09,03,21,48,14.20
2008,09,03,21,49,14.20
2008,09,03,21,50,14.20
2008,09,03,21,51,14.20
2008,09,03,21,52,14.20
2008,09,03,21,53,14.20
2008,09,03,21,54,14.10
2008,09,03,21,55,14.10
2008,09,03,21,56,14.10
2008,09,03,21,57,14.10
2008,09,03,21,58,14.00
2008,09,03,21,59,14.00
2008,09,03,22,00,14.00
2008,09,03,22,01,14.00
2008,09,03,22,02,13.90
2008,09,03,22,03,13.90
2008,09,03,22,04,13.90
2008,09,03,22,05,13.90
2008,09,03,22,06,13.90
2008,09,03,22,07,13.90
2008,09,03,22,08,13.90
2008,09,03,22,09,13.90
2008,09,03,22,10,13.90
2008,09,03,22,11,13.90
2008,09,03,22,12,13.80
2008,09,03,22,13,13.80
2008,09,03,22,14,13.80
2008,09,03,22,15,13.80
2008,09,03,22,16,13.80
2008,09,03,22,17,13.70
2008,09,03,22,18,13.70
2008,09,03,22,19,13.70
2008,09,03,22,20,13.70
2008,09,03,22,21,13.70
2008,09,03,22,22,13.70
2008,09,03,22,23,13.70
2008,09,03,22,24,13.70
2008,09,03,22,25,13.60
2008,09,03,22,26,13.60
2008,09,03,22,27,13.60
2008,09,03,22,28,13.60
2008,09,03,22,29,13.60
2008,09,03,22,30,13.50
2008,09,03,22,31,13.50
2008,09,03,22,32,13.50
2008,09,03,22,33,13.50
2008,09,03,22,34,13.50
2008,09,03,22,35,13.40
2008,09,03,22,36,13.40
2008,09,03,22,37,13.40
2008,09,03,22,38,13.40
2008,09,03,22,39,13.30
2008,09,03,22,40,13.30
2008,09,03,22,41,13.30
2008,09,03,22,42,13.30
2008,09,03,22,43,13.30
2008,09,03,22,44,13.30
2008,09,03,22,45,13.30
2008,09,03,22,46,13.20
2008,09,03,22,47,13.20
2008,09,03,22,48,13.20
2008,09,03,22,49,13.20
2008,09,03,22,50,13.10
2008,09,03,22,51,13.10
2008,09,03,22,52,13.10
2008,09,03,22,53,13.10
2008,09,03,22,54,13.10
2008,09,03,22,55,13.00
2008,09,03,22,56,13.00
2008,09,03,22,57,13.00
2008,09,03,22,58,13.00
2008,09,03,22,59,13.00
2008,09,03,23,00,13.00
2008,09,03,23,01,13.10
2008,09,03,23,02,13.10
2008,09,03,23,03,13.10
2008,09,03,23,04,13.20
2008,09,03,23,05,13.20
2008,09,03,23,06,13.30
2008,09,03,23,07,13.30
2008,09,03,23,08,13.40
2008,09,03,23,09,13.40
2008,09,03,23,10,13.50
2008,09,03,23,11,13.60
2008,09,03,23,12,13.70
2008,09,03,23,13,13.70
2008,09,03,23,14,13.80
2008,09,03,23,15,13.80
2008,09,03,23,16,13.90
2008,09,03,23,17,14.00
2008,09,03,23,18,14.00
2008,09,03,23,19,14.10
2008,09,03,23,20,14.10
2008,09,03,23,21,14.20
2008,09,03,23,22,14.20
2008,09,03,23,23,14.20
2008,09,03,23,24,14.20
2008,09,03,23,25,14.20
2008,09,03,23,26,14.20
2008,09,03,23,27,14.20
2008,09,03,23,28,14.20
2008,09,03,23,29,14.30
2008,09,03,23,30,14.30
2008,09,03,23,31,14.40
2008,09,03,23,32,14.40
2008,09,03,23,33,14.40
2008,09,03,23,34,14.40
2008,09,03,23,35,14.40
2008,09,03,23,36,14.40
2008,09,03,23,37,14.40
2008,09,03,23,38,14.30
2008,09,03,23,39,14.30
2008,09,03,23,40,14.30
2008,09,03,23,41,14.20
2008,09,03,23,42,14.20
2008,09,03,23,43,14.20
2008,09,03,23,44,14.20
2008,09,03,23,45,14.10
2008,09,03,23,46,14.10
2008,09,03,23,47,14.10
2008,09,03,23,48,14.00
2008,09,03,23,49,14.00
2008,09,03,23,50,14.00
2008,09,03,23,51,13.90
2008,09,03,23,52,13.90
2008,09,03,23,53,13.80
2008,09,03,23,54,13.80
2008,09,03,23,55,13.80
2008,09,03,23,56,13.70
2008,09,03,23,57,13.70
2008,09,03,23,58,13.70
2008,09,03,23,59,13.70
